[[{"header":{"parameterUnit":"m.s-1","parameterCategory":1,"la1":30.2991,"la2":30.254,"lo1":-89.0895,"lo2":-89.0444,"dy":0.0017,"dx":0.0017,"nx":28,"ny":28,"refTime":"2023-09-04T03:00:00:Z","depth":0,"parameterNumber":2,"parameterNumberName":"U-component_of_WINDS"},"data":[0,0,0,0,0,0,0,0,0,0,0,0,0,0,0,0,0,0,0,0,0,0,0,0,0,0,0,0,0,0,0,0,0,0,0,0,0,0,0,0,0,0,0,0,0,0,0,0,0,0,0,0,0,0,0,0,0,0,-1.44,-1.4396,0,-1.4099,-1.4096,-1.4092,-1.3933,-1.3933,-1.3932,-1.3932,-1.3635,-1.3628,-1.3621,0,0,0,0,0,0,0,0,0,0,0,0,0,-1.4844,-1.4836,-1.44,-1.4396,-1.4392,-1.41,-1.4095,-1.4091,-1.3933,-1.3933,-1.3932,-1.3932,-1.3638,-1.3629,-1.362,0,0,0,0,0,0,0,0,0,0,0,0,0,-1.4608,-1.4834,-1.4401,-1.4278,-1.4264,-1.41,-1.4095,-1.409,-1.3933,-1.3933,-1.3932,-1.3932,-1.3641,-1.363,-1.3619,-1.3558,0,0,-1.3584,-1.3579,0,0,0,0,0,0,0,0,-1.4622,-1.4592,-1.43,-1.4286,-1.427,-1.4053,-1.4143,-1.3912,-1.3933,-1.4059,-1.3932,-1.3932,-1.3775,-1.3753,-1.3698,-1.3544,-1.3531,-1.3583,-1.3576,-1.3571,-1.3568,0,0,0,0,0,0,0,-1.4638,-1.4604,-1.4281,-1.4296,-1.4277,-1.424,-1.4206,-1.4099,-1.3924,-1.4048,-1.4036,-1.4002,-1.3767,-1.3709,-1.369,-1.3527,-1.3583,-1.3573,-1.3566,-1.3561,-1.3304,-1.3304,0,0,0,0,0,0,-1.4673,-1.4619,-1.4291,-1.4272,-1.4448,-1.4232,-1.4194,-1.4123,-1.3925,-1.3894,-1.4003,-1.3996,-1.3729,-1.3703,-1.3679,-1.3591,-1.3571,-1.356,-1.3554,-1.3304,-1.3304,-1.3304,0,0,0,0,0,0,-1.4683,-1.4645,-1.4303,-1.4442,-1.4395,-1.4225,-1.4147,-1.4118,-1.4059,-1.389,-1.3859,-1.3975,-1.3728,-1.3695,-1.3587,-1.3579,-1.3555,-1.3545,-1.3304,-1.3304,-1.3304,-1.3419,0,0,0,0,0,0,-1.4697,-1.465,-1.4624,-1.4442,-1.4388,-1.4214,-1.4146,-1.4112,-1.4039,-1.4027,-1.3856,-1.3827,-1.3725,-1.3605,-1.3576,-1.3563,-1.3536,-1.3304,-1.3304,-1.3304,-1.3415,-1.3423,-1.3429,0,0,0,0,0,-1.4713,-1.4671,-1.4623,-1.4585,-1.4351,-1.4214,-1.4184,-1.4063,-1.4039,-1.4011,-1.3902,-1.3833,-1.3585,-1.3596,-1.3561,-1.3545,-1.3304,-1.3304,-1.3304,-1.3412,-1.3421,-1.3429,0,0,0,0,0,0,-1.4861,-1.4645,-1.459,-1.4487,-1.437,-1.4188,-1.415,-1.4078,-1.3968,-1.3962,-1.3821,-1.3784,-1.3689,-1.3606,-1.3622,-1.3474,-1.3437,-1.3431,-1.3531,-1.3538,-1.3545,-1.3567,-1.3526,0,0,0,0,0,-1.4881,-1.4784,-1.4602,-1.453,-1.4473,-1.4322,-1.4258,-1.4174,-1.4049,-1.3999,-1.3882,-1.3766,-1.3661,-1.3595,-1.349,-1.3402,-1.3362,-1.3374,-1.3381,-1.3388,-1.3384,-1.3328,-1.3331,-1.3304,-1.3304,-1.3304,0,0,-1.4922,-1.4793,-1.4741,-1.4556,-1.4455,-1.436,-1.4281,-1.4185,-1.4114,-1.3986,-1.3875,-1.3786,-1.3646,-1.3547,-1.3498,-1.3475,-1.3382,-1.3388,-1.3395,-1.3386,-1.3329,-1.3331,-1.3334,-1.3304,-1.3304,-1.3304,0,0,-1.4948,-1.4841,-1.4767,-1.4666,-1.4512,-1.4411,-1.4394,-1.4221,-1.4154,-1.404,-1.3941,-1.3856,-1.368,-1.3583,-1.3511,-1.3497,-1.3428,-1.3467,-1.3504,-1.3452,-1.3454,-1.3455,-1.3448,-1.3448,-1.3463,-1.3464,-1.3464,0,-1.5021,-1.487,-1.4739,-1.4646,-1.4567,-1.4442,-1.4366,-1.4276,-1.4098,-1.4047,-1.4024,-1.3796,-1.3694,-1.3569,-1.3565,-1.3512,-1.3487,-1.3485,-1.3464,-1.3464,-1.3463,-1.3455,-1.3453,-1.3469,-1.3468,-1.3468,-1.3467,0,-1.4965,-1.4863,-1.4821,-1.4646,-1.4563,-1.448,-1.4337,-1.4269,-1.4193,-1.4095,-1.398,-1.3852,-1.3717,-1.3681,-1.3609,-1.3546,-1.3536,-1.349,-1.3451,-1.3473,-1.3463,-1.3459,-1.3477,-1.3475,-1.3473,-1.3472,0,0,-1.5078,-1.4828,-1.4815,-1.4732,-1.4552,-1.4471,-1.4383,-1.4245,-1.4189,-1.4071,-1.3992,-1.3843,-1.3798,-1.3717,-1.3632,-1.3586,-1.358,-1.3545,-1.3539,-1.3554,-1.3501,-1.3535,-1.3534,-1.3533,-1.3532,-1.3531,-1.3512,0,-1.5078,-1.4907,-1.4785,-1.4663,-1.4565,-1.4444,-1.4366,-1.4248,-1.4154,-1.406,-1.3957,-1.3853,-1.3802,-1.3751,-1.3701,-1.3592,-1.3567,-1.3592,-1.346,-1.3457,-1.3497,-1.3528,-1.3565,-1.3553,-1.3507,-1.3506,-1.3506,0,-1.5055,-1.4934,-1.4801,-1.4627,-1.4581,-1.4513,-1.4376,-1.4287,-1.4151,-1.4085,-1.3992,-1.3903,-1.3805,-1.3775,-1.3638,-1.3657,-1.3596,-1.3534,-1.3531,-1.3513,-1.3483,-1.3511,-1.3546,-1.3544,-1.3499,-1.3499,-1.35,0,-1.5148,-1.4953,-1.4846,-1.478,-1.4575,-1.4529,-1.4443,-1.4305,-1.423,-1.4111,-1.4061,-1.3935,-1.3866,-1.3771,-1.3651,-1.364,-1.3526,-1.3486,-1.3469,-1.3473,-1.3451,-1.3454,-1.3476,-1.3414,-1.3415,-1.3415,-1.3415,0,-1.516,-1.5083,-1.4884,-1.482,-1.473,-1.459,-1.4505,-1.4409,-1.4287,-1.4202,-1.4092,-1.4015,-1.3861,-1.3767,-1.3673,-1.3572,-1.3543,-1.3488,-1.3464,-1.3497,-1.3504,-1.3455,-1.3452,-1.3414,-1.3414,-1.3414,-1.3414,0,-1.5249,-1.5113,-1.4989,-1.4803,-1.4754,-1.4696,-1.4538,-1.4471,-1.4369,-1.4263,-1.423,-1.4072,-1.3954,-1.3824,-1.3665,-1.3602,-1.3507,-1.3473,-1.3551,-1.3537,-1.3527,-1.3529,-1.3517,-1.3508,-1.3456,-1.3457,-1.3457,0,-1.5265,-1.5202,-1.5007,-1.494,-1.4854,-1.4749,-1.4669,-1.4529,-1.4451,-1.4289,-1.4241,-1.4114,-1.4004,-1.3823,-1.3695,-1.3572,-1.3534,-1.3538,-1.3515,-1.3549,-1.3532,-1.3536,-1.3528,-1.3545,-1.3547,-1.3548,-1.3548,0,-1.5308,-1.5242,-1.5129,-1.4992,-1.4899,-1.4786,-1.4669,-1.4621,-1.4458,-1.4376,-1.4251,-1.4166,-1.4,-1.3875,-1.3735,-1.3649,-1.3572,-1.3556,-1.3545,-1.3578,-1.3625,-1.3597,-1.3568,-1.3557,-1.3556,-1.3556,-1.3555,-1.3555,-1.5359,-1.5296,-1.5147,-1.5025,-1.492,-1.4812,-1.4738,-1.4624,-1.4517,-1.4367,-1.4292,-1.4168,-1.4031,-1.3834,-1.3749,-1.3652,-1.3627,-1.3613,-1.3609,-1.3607,-1.3615,-1.3641,-1.3626,-1.3626,-1.3625,-1.3625,-1.3625,0,-1.5394,-1.5291,-1.5179,-1.5015,-1.4919,-1.4849,-1.4715,-1.464,-1.453,-1.4407,-1.4299,-1.4155,-1.4032,-1.3894,-1.3763,-1.3711,-1.3672,-1.3681,-1.3683,-1.3664,-1.3645,-1.3666,-1.3715,-1.3715,-1.3715,-1.3715,-1.3715,-1.3715,-1.5401,-1.5289,-1.5205,-1.504,-1.4938,-1.4811,-1.474,-1.464,-1.454,-1.4382,-1.4277,-1.4185,-1.4056,-1.3913,-1.3798,-1.376,-1.3717,-1.3736,-1.3689,-1.3673,-1.3666,-1.3659,-1.3678,-1.3728,-1.3728,-1.3716,-1.3716,-1.3716]},{"header":{"parameterUnit":"m.s-1","parameterCategory":1,"la1":30.2991,"la2":30.254,"lo1":-89.0895,"lo2":-89.0444,"dy":0.0017,"dx":0.0017,"nx":28,"ny":28,"refTime":"2023-09-04T03:00:00:Z","depth":0,"parameterNumber":3,"parameterNumberName":"V-component_of_WINDS"},"data":[0,0,0,0,0,0,0,0,0,0,0,0,0,0,0,0,0,0,0,0,0,0,0,0,0,0,0,0,0,0,0,0,0,0,0,0,0,0,0,0,0,0,0,0,0,0,0,0,0,0,0,0,0,0,0,0,0,0,5.0621,5.0621,0,5.0655,5.0655,5.0656,5.0621,5.062,5.0619,5.0618,5.0649,5.0651,5.0653,0,0,0,0,0,0,0,0,0,0,0,0,0,5.0522,5.0524,5.0621,5.0621,5.0622,5.0655,5.0655,5.0656,5.0622,5.062,5.0618,5.0617,5.0649,5.0651,5.0654,0,0,0,0,0,0,0,0,0,0,0,0,0,5.0562,5.0525,5.0621,5.0609,5.0608,5.0655,5.0655,5.0656,5.0622,5.062,5.0618,5.0616,5.0648,5.0651,5.0654,5.0713,0,0,5.0664,5.0665,0,0,0,0,0,0,0,0,5.0559,5.0565,5.061,5.061,5.0609,5.0632,5.0632,5.0675,5.0622,5.0617,5.0617,5.0615,5.0645,5.0648,5.0659,5.0715,5.0716,5.0664,5.0666,5.0667,5.0668,0,0,0,0,0,0,0,5.0557,5.0563,5.0634,5.0611,5.061,5.06,5.0604,5.064,5.0641,5.0617,5.0615,5.0619,5.0644,5.0656,5.0659,5.0716,5.0664,5.0666,5.0668,5.067,5.0821,5.0823,0,0,0,0,0,0,5.0556,5.0561,5.0633,5.0635,5.0579,5.0604,5.0607,5.0626,5.0641,5.0641,5.0621,5.0618,5.0652,5.0656,5.066,5.0729,5.0667,5.067,5.0672,5.0819,5.0821,5.0824,0,0,0,0,0,0,5.0554,5.0562,5.0632,5.0598,5.0606,5.0608,5.0629,5.0628,5.064,5.0644,5.0644,5.0633,5.065,5.0656,5.07,5.073,5.0671,5.0674,5.0816,5.0819,5.0822,5.0868,0,0,0,0,0,0,5.0551,5.0562,5.0585,5.0599,5.0608,5.0672,5.0631,5.063,5.0646,5.0642,5.0655,5.0655,5.0649,5.0696,5.0703,5.0733,5.0677,5.0813,5.0818,5.0821,5.0864,5.0873,5.088,0,0,0,0,0,5.0548,5.0597,5.0587,5.0596,5.0637,5.0674,5.0679,5.0671,5.0648,5.0671,5.0674,5.0655,5.0726,5.07,5.0709,5.074,5.0811,5.0816,5.0821,5.086,5.0871,5.088,0,0,0,0,0,0,5.0586,5.0598,5.0587,5.0642,5.0657,5.0668,5.0696,5.0683,5.0704,5.0699,5.0688,5.0692,5.0738,5.0744,5.0715,5.0797,5.0765,5.0771,5.0792,5.0802,5.081,5.0806,5.0679,0,0,0,0,0,5.0601,5.0631,5.064,5.0687,5.0695,5.0695,5.071,5.0703,5.0718,5.0724,5.073,5.0744,5.0769,5.0786,5.081,5.0865,5.0867,5.0891,5.0899,5.0905,5.091,5.0939,5.0949,5.0839,5.0839,5.0839,0,0,5.0632,5.0642,5.0662,5.0695,5.0706,5.0735,5.07,5.0734,5.0755,5.0729,5.0771,5.0776,5.079,5.084,5.0862,5.0846,5.0941,5.0911,5.0916,5.0918,5.0945,5.0955,5.0964,5.0843,5.0842,5.0842,0,0,5.0703,5.0715,5.0755,5.0767,5.0784,5.0783,5.0793,5.0806,5.0808,5.085,5.0831,5.0856,5.09,5.0911,5.0922,5.0998,5.098,5.1006,5.1046,5.1074,5.1083,5.109,5.1115,5.1124,5.1011,5.1011,5.1011,0,5.0739,5.0784,5.0777,5.0812,5.0826,5.0805,5.0844,5.0856,5.0879,5.0889,5.0871,5.0925,5.0934,5.0985,5.1004,5.1014,5.1023,5.1003,5.1082,5.109,5.1097,5.112,5.113,5.1014,5.1014,5.1014,5.1013,0,5.0826,5.0858,5.0888,5.0912,5.093,5.0967,5.0964,5.0983,5.0975,5.0975,5.1018,5.1028,5.1052,5.1064,5.1056,5.1114,5.1103,5.1084,5.1051,5.111,5.1132,5.1141,5.1018,5.1017,5.1016,5.1016,0,0,5.0922,5.0942,5.0953,5.0963,5.098,5.1004,5.1039,5.1064,5.1079,5.1097,5.1125,5.1163,5.1145,5.1158,5.1151,5.1175,5.1232,5.1153,5.1153,5.1165,5.1294,5.1307,5.1318,5.1221,5.1223,5.1225,5.1292,0,5.0992,5.1055,5.1049,5.1107,5.1135,5.1115,5.1146,5.1159,5.1161,5.1184,5.1185,5.1212,5.1187,5.1194,5.1218,5.122,5.1257,5.1215,5.1246,5.1247,5.1241,5.133,5.1344,5.1408,5.1301,5.1303,5.1304,0,5.1083,5.1103,5.1165,5.1177,5.1188,5.1216,5.1238,5.1261,5.1275,5.1274,5.1289,5.1277,5.1311,5.1279,5.1324,5.1296,5.1308,5.1311,5.1313,5.1314,5.1278,5.1332,5.1428,5.1437,5.1317,5.1316,5.1315,0,5.1144,5.1187,5.1229,5.1239,5.1254,5.1274,5.1281,5.1293,5.1308,5.1327,5.1336,5.1359,5.137,5.1387,5.1382,5.1359,5.1428,5.1396,5.1427,5.1427,5.1441,5.144,5.1539,5.1452,5.1452,5.1452,5.1452,0,5.1222,5.126,5.1257,5.1283,5.1324,5.1317,5.1357,5.1362,5.1373,5.1398,5.1382,5.1406,5.1398,5.1421,5.1417,5.1454,5.146,5.146,5.1458,5.146,5.146,5.1467,5.1461,5.1455,5.1454,5.1454,5.1453,0,5.1297,5.1297,5.1341,5.1352,5.1356,5.1386,5.1394,5.1418,5.1418,5.145,5.1457,5.1458,5.1484,5.1481,5.151,5.1507,5.1553,5.1547,5.1548,5.1546,5.1577,5.1574,5.1683,5.1696,5.1602,5.1603,5.1604,0,5.1347,5.1375,5.139,5.1406,5.1414,5.144,5.1456,5.1449,5.1465,5.1483,5.1504,5.1529,5.1548,5.1591,5.1593,5.1615,5.1608,5.1644,5.1611,5.1612,5.1606,5.1604,5.1606,5.165,5.1651,5.1652,5.1653,0,5.1433,5.1432,5.1455,5.1477,5.1496,5.1513,5.1529,5.1543,5.1538,5.1557,5.1583,5.1599,5.1628,5.1652,5.1673,5.1679,5.1665,5.1664,5.1672,5.1674,5.1673,5.1672,5.1565,5.1661,5.166,5.166,5.1659,5.1659,5.1496,5.152,5.1533,5.1559,5.157,5.1585,5.1607,5.1611,5.1633,5.1657,5.1652,5.1682,5.1694,5.172,5.1728,5.175,5.1737,5.1749,5.1752,5.1755,5.1757,5.1671,5.1754,5.1754,5.1754,5.1754,5.1754,0,5.158,5.1588,5.1612,5.1634,5.1654,5.164,5.1657,5.1674,5.17,5.1713,5.1733,5.1763,5.1786,5.179,5.1812,5.1829,5.1823,5.1835,5.1833,5.1834,5.1769,5.1759,5.184,5.184,5.184,5.184,5.184,5.1839,5.1626,5.1666,5.1665,5.1709,5.1717,5.1746,5.1756,5.1769,5.178,5.1814,5.1834,5.1836,5.1845,5.1868,5.1888,5.1889,5.1897,5.1911,5.1909,5.1848,5.1839,5.1831,5.1821,5.1913,5.1913,5.1971,5.1972,5.1972]}]]